Simultaneous Nadir Overpasses (SNOs) Predictions

Prediction of SNOs between AQUA and NOAA-19 Satellite Orbit:

Table of predicted SNOs for the next 14.0 days since TLE Epoch: 5/29/2021
Index Date (AQUA) Time (AQUA) Lat,Lon (AQUA) SZA (AQUA ) Date (NOAA-19) Time (NOAA-19) Lat,Lon (NOAA-19) SZA (NOAA-19 ) Distance(km) Time Diff (sec)
1 05/29/2021 04:43:24 -78.61, -92.40 122.29 05/29/2021 04:42:18 -78.52, -95.69 122.06 73.26 66
2 05/29/2021 05:32:57 78.87, 73.80 58.07 05/29/2021 05:33:14 78.84, 73.77 58.04 3.47 17
3 05/31/2021 11:06:40 -78.81, 170.68 122.33 05/31/2021 11:06:19 -78.84, 170.60 122.29 3.47 21
4 05/31/2021 11:56:09 78.91, -22.24 57.80 05/31/2021 11:57:20 78.97, -21.13 57.75 24.67 71
5 06/02/2021 16:40:24 78.80, -92.66 57.36 06/02/2021 16:39:34 78.83, -92.69 57.42 3.98 50
6 06/02/2021 17:29:52 -78.86, 74.64 122.56 06/02/2021 17:30:29 -78.84, 74.69 122.59 1.55 37
7 06/04/2021 23:03:36 78.84, 171.27 57.17 06/04/2021 23:03:44 78.83, 171.33 57.15 2.27 8
8 06/07/2021 04:37:19 -78.79, -91.87 123.12 06/07/2021 04:36:50 -78.81, -92.01 123.09 3.40 29
9 06/07/2021 05:26:47 78.86, 75.41 56.96 06/07/2021 05:27:53 78.85, 75.58 56.93 3.60 66
10 06/09/2021 10:11:03 78.79, 4.70 56.69 06/09/2021 10:10:04 78.80, 4.72 56.72 0.96 59
11 06/09/2021 11:00:30 -78.81, 172.26 123.29 06/09/2021 11:00:59 -78.84, 172.29 123.27 3.85 29
12 06/11/2021 16:34:14 78.81, -91.19 56.56 06/11/2021 16:34:13 78.82, -91.08 56.57 2.63 1



Historial Predications of SNOs between AQUA and NOAA-19
